Home > Time Zones > World Clock > Weather > Spain > Cadiz > Past weeks

Flag for Spain Weather past 2 weeks in Cadiz, Cádiz, Spain

Now
50 °F

Passing clouds.


Feels Like: 46 °F
Forecast: 46 / 57 °F
Wind: 10 mph from North

Location: Rota Airport

Current Time: Dec 29, 2014 at 6:29:33 AM

Latest Report: Dec 29, 2014 at 5:00 AM


Visibility: N/A

Pressure: 30.21 "Hg

Humidity: 82%

Dew point: 45 °F

Location of CadizLocation

Historic Weather in Cadiz — Graph

°F

Cadiz temperature yesterday

Maximum temperature yesterday: 59 °F (at 3:00 PM)
Minimum temperature yesterday: 50 °F (at 3:00 AM)
Average temperature yesterday: 55 °F

Past Weeks' High & Low Weather Summary

 TemperatureHumidityPressure
High64 °F (Dec 22, 2:00 PM)100% (Dec 14, 11:00 PM)30.48 "Hg (Dec 14, 11:00 PM)
Low39 °F (Dec 27, 8:00 AM)63% (Dec 14, 5:00 AM)29.74 "Hg (Dec 14, 9:00 AM)
Average51 °F90%30.30 "Hg
* Reported Dec 14 5:00 AM — Dec 29 5:00 AM, Cadiz, Weather by CustomWeather, © 2014

Note: Actual official high and low records may vary slightly from our data, if they occured in-between our weather recording intervals... More about our weather records

Advertising

Cadiz weather history for previous 24 hours

 ConditionsComfort  
Time TempWeatherWind HumidityBarometerVisibility
5:00 AM
Dec 29
50 °FPassing clouds.10 mph82%30.21 "HgN/A
4:00 AM52 °FPassing clouds.9 mph82%30.21 "HgN/A
3:00 AM52 °FPassing clouds.9 mph82%30.21 "HgN/A
2:00 AM54 °FPassing clouds.12 mph82%30.21 "HgN/A
1:00 AM55 °FPassing clouds.12 mph82%30.21 "HgN/A
12:00 AM57 °FPassing clouds.12 mph82%30.21 "HgN/A
11:00 PM
Dec 28
57 °FPassing clouds.13 mph82%30.21 "HgN/A
10:00 PM59 °FPassing clouds.13 mph82%30.21 "HgN/A
9:00 PM59 °FPassing clouds.13 mph82%30.21 "HgN/A
8:00 PM59 °FPartly cloudy.10 mph82%30.21 "HgN/A
7:00 PM59 °FMostly cloudy.7 mph82%30.21 "HgN/A
6:00 PM59 °FBroken clouds.8 mph82%30.21 "HgN/A
5:00 PM59 °FPartly sunny.9 mph77%30.21 "HgN/A
4:00 PM59 °FPartly sunny.10 mph77%30.21 "HgN/A
3:00 PM59 °FPartly sunny.15 mph72%30.21 "HgN/A
2:00 PM57 °FPartly sunny.16 mph82%30.24 "HgN/A
1:00 PM57 °FPartly sunny.14 mph77%30.27 "HgN/A
12:00 PM55 °FScattered clouds.12 mph82%30.30 "HgN/A
11:00 AM54 °FPassing clouds.5 mph82%30.30 "HgN/A
10:00 AM52 °FPassing clouds.13 mph88%30.27 "HgN/A
9:00 AM52 °FClear.10 mph82%30.27 "Hg5 mi
8:00 AM50 °FPassing clouds.8 mph88%30.24 "Hg5 mi
7:00 AM50 °FPassing clouds.1 mph88%30.24 "HgN/A
6:00 AM50 °FPassing clouds.7 mph88%30.24 "HgN/A
Weather by CustomWeather, © 2014

See weather overviewHow to use our weather pages